TITAN 3C TRANSTAGE DEB

Satellite information

Favourite Embed

Satellite Type and Status

DEBRISIN ORBIT

Key statistics

Satellite TITAN 3C TRANSTAGE DEB at a glance.

Uptime

21851

Days in orbit

Revolutions

≈ 4.2

Per day

Orbit

MEO

Medium Earth Orbit

Inclination

28.0

Latest

Satellite identification and parameters

Extended collection of information and parameters for TITAN 3C TRANSTAGE DEB.

Object identification

Identified? True

Debris? True

Object name: TITAN 3C TRANSTAGE DEB

International designator: 1965-108CA

Object number (NORAD): 28808

Object ID (CCSDS): 28808

Country: UNITED STATES OF AMERICA (US)

Current information (Y/N): Y

RCS size: SMALL

Orbital parameters

Period: 338.949 minutes

Inclination: 27.99 deg

SMA: 16103.37 km

Apoapsis: 19141.209 km

Periapsis: 309.261 km

RAAN: 347.3504 deg

Eccentricy: 0.5847207

Argument of periapsis: 231.6751 deg

Mean anomaly: 59.8857 deg

Mean motion: 4.24842145 rev/day

Mean motion (dot): 0.00003872 rev/day2

B* drag term: 0.0010825 1/REarth

Two-line elements (TLE)

Creation date: Aug. 8, 2025, 5:06 a.m.

Reference frame: TEME

Reference center: EARTH

Epoch: Aug. 6, 2025, 10:55 a.m. UTC

TLE line 0: 0 TITAN 3C TRANSTAGE DEB

TLE line 1: 1 28808U 65108CA 25218.45519875 .00003872 00000-0 10825-2 0 9996

TLE line 2: 2 28808 27.9900 347.3504 5847207 231.6751 59.8857 4.24842145328952

Live tracking on map

Real-time ground track for satellite TITAN 3C TRANSTAGE DEB.

In-orbit conjunctions

There are no conjunctions computed for TITAN 3C TRANSTAGE DEB, at the moment. Check back to stay up to date, as we update our databases every day.

Go to all conjunctions

Associated space launch

The OV2 (Orbiting Vehicle 2) series satellites were originally built for project ARENTS (Advanced Research Environmental Test Satellite), which was intended to obtain supporting data for the Vela program. After the cancellation of the ARENTS program, the already built hardware was reused for OV2, a low-cost series of experimental satellites, which were to be launched for free on Titan-3C test flights to very different orbits.

TITAN 3C TRANSTAGE DEB was lifted into orbit during the mission ‘Titan IIIC | OV2-3’, on board a Titan IIIC space rocket.

The launch took place on Dec. 21, 1965, 2 p.m. from Space Launch Complex 41.

For more information about the launch, click the button.

Launch to space Titan IIIC | OV2-3
Titan IIIC | OV2-3

Agency: N/A

Status: Launch Successful

Launch date: Dec. 21, 1965, 2 p.m. UTC

Rocket: Titan IIIC

Launch pad: Space Launch Complex 41

Location: Cape Canaveral SFS, FL, USA

...

Latest news about this satellite

There are no fresh news available about this satellite. Check back as we update our databases every day.


Newsletter sign-up

Weekly statistics, charts and insights to help you stay on top of the space industry.